Location: Feydey
(46.3431°N, 7.0106°E)
Time: 09:23:52
(UTC+00:00)

CENTAUR R/B - Pass Details

Date: 20 June 2021
Orbit: 740 x 1447 km, 63.4° (Epoch: 17 July)

Event Time Altitude Azimuth Distance (km) Brightness Sun altitude
Rises 20:34:56 0° 252° (WSW) 3,497 5.7 -9.4°
Reaches altitude 10° 20:37:29 10° 261° (W) 2,651 5.2 -9.6°
Maximum altitude 20:43:14 37° 328° (NNW) 1,597 4.4 -10.3°
Drops below altitude 10° 20:49:59 10° 34° (NNE) 3,132 5.4 -11.0°
Sets 20:53:16 0° 42° (NE) 4,212 6.0 -11.3°
